CW8484 Weather Reports


Display with metric or nautical units.
time (UTC)temp
F
wind
direction
speed
MPH
gust
MPH
rain 1hr
in
rain 24hr
in
rain mn
in
humidity
%
barometer
mb
20230206184854 28 299 3.0 10.0 0.00 0.00 0.00 63 1022.1
20230206184355 28 7 3.0 10.0 0.00 0.00 0.00 63 1022.0
20230206183916 28 336 3.0 9.0 0.00 0.00 0.00 64 1022.0
20230206183355 28 295 1.0 8.0 0.00 0.00 0.00 64 1022.0
20230206182854 28 297 2.0 9.0 0.00 0.00 0.00 65 1022.0
20230206182355 28 287 2.0 9.0 0.00 0.00 0.00 66 1022.0
20230206181916 28 286 2.0 10.0 0.00 0.00 0.00 67 1021.9
20230206181355 27 264 2.0 10.0 0.00 0.00 0.00 67 1021.9
20230206180916 27 328 3.0 13.0 0.00 0.00 0.00 67 1021.9
20230206180355 28 338 4.0 13.0 0.00 0.00 0.00 67 1021.8
20230206175855 28 305 3.0 9.0 0.00 0.00 0.00 67 1021.9
20230206175355 28 339 1.0 14.0 0.00 0.00 0.00 68 1021.9
20230206174855 28 264 2.0 14.0 0.00 0.00 0.00 69 1021.8
20230206174354 27 312 5.0 11.0 0.00 0.00 0.00 69 1021.8
20230206173855 27 300 5.0 11.0 0.00 0.00 0.00 69 1021.8
20230206173354 27 318 2.0 14.0 0.00 0.00 0.00 69 1021.7
20230206172855 28 300 4.0 14.0 0.00 0.00 0.00 70 1021.7
20230206172416 28 312 3.0 12.0 0.00 0.00 0.00 69 1021.8
20230206171855 28 301 5.0 11.0 0.00 0.00 0.00 69 1021.7
20230206171416 28 310 3.0 10.0 0.00 0.00 0.00 70 1021.7
20230206170916 28 285 3.0 10.0 0.00 0.00 0.00 71 1021.6
20230206170355 27 313 3.0 12.0 0.00 0.00 0.00 71 1021.6
20230206165854 27 297 5.0 14.0 0.00 0.00 0.00 72 1021.5
20230206165437 27 300 5.0 14.0 0.00 0.00 0.00 72 1021.4
20230206164855 27 297 6.0 13.0 0.00 0.00 0.00 71 1021.4
20230206164355 28 304 6.0 13.0 0.00 0.00 0.00 72 1021.4
20230206163916 28 309 4.0 8.0 0.00 0.00 0.00 72 1021.5
20230206163355 28 332 2.0 9.0 0.00 0.00 0.00 74 1021.4
20230206162855 27 299 2.0 9.0 0.00 0.00 0.00 75 1021.4
20230206162355 26 308 2.0 10.0 0.00 0.00 0.00 77 1021.3
20230206161855 26 312 5.0 14.0 0.00 0.00 0.00 78 1021.3
20230206161355 25 291 6.0 16.0 0.00 0.00 0.00 79 1021.3
20230206160855 25 298 6.0 16.0 0.00 0.00 0.00 79 1021.3
20230206160355 25 327 3.0 8.0 0.00 0.00 0.00 80 1021.3
20230206155855 25 324 1.0 9.0 0.00 0.00 0.00 80 1021.1
20230206155355 25 303 3.0 10.0 0.00 0.00 0.00 80 1021.1
20230206154855 25 278 1.0 10.0 0.00 0.00 0.00 80 1021.0
20230206154355 25 297 1.0 8.0 0.00 0.00 0.00 81 1020.9
20230206153855 25 317 2.0 8.0 0.00 0.00 0.00 80 1020.8
20230206153355 25 344 1.0 8.0 0.00 0.00 0.00 80 1020.7
20230206152855 25 317 2.0 11.0 0.00 0.00 0.00 80 1020.5
20230206152416 25 319 2.0 11.0 0.00 0.00 0.00 80 1020.5
20230206151855 25 307 4.0 8.0 0.00 0.00 0.00 81 1020.4
20230206151416 24 328 1.0 6.0 0.00 0.00 0.00 83 1020.3
20230206150855 24 328 0.0 9.0 0.00 0.00 0.00 83 1020.3
20230206150355 24 323 1.0 9.0 0.00 0.00 0.00 84 1020.1
20230206145916 24 343 2.0 9.0 0.00 0.00 0.00 85 1020.1
20230206145415 23 345 1.0 10.0 0.00 0.00 0.00 85 1019.9
20230206144855 23 81 0.0 10.0 0.00 0.00 0.00 85 1019.9
20230206144354 23 13 3.0 9.0 0.00 0.00 0.00 85 1019.8
20230206143855 23 20 3.0 12.0 0.00 0.00 0.00 86 1019.6
20230206143355 23 3 3.0 13.0 0.00 0.00 0.00 86 1019.5
20230206142855 23 312 0.0 13.0 0.00 0.00 0.00 86 1019.4
20230206142354 24 308 2.0 7.0 0.00 0.00 0.00 87 1019.2
20230206141855 23 296 2.0 11.0 0.00 0.00 0.00 88 1019.1
20230206141355 23 286 2.0 11.0 0.00 0.00 0.00 88 1019.1
20230206140855 24 347 4.0 10.0 0.00 0.00 0.00 88 1019.0
20230206140416 24 291 0.0 11.0 0.00 0.00 0.00 89 1018.8
20230206135855 24 279 1.0 11.0 0.00 0.00 0.00 89 1018.7
20230206135355 25 292 1.0 8.0 0.00 0.00 0.00 89 1018.5
20230206134917 25 295 1.0 5.0 0.00 0.00 0.00 90 1018.3
20230206134437 25 295 2.0 8.0 0.00 0.00 0.00 90 1018.3
20230206133855 25 292 0.0 8.0 0.00 0.00 0.00 90 1018.3
20230206133355 25 266 2.0 9.0 0.00 0.00 0.00 90 1018.1
20230206132855 26 269 2.0 11.0 0.00 0.00 0.00 89 1018.0
20230206132355 26 300 4.0 11.0 0.00 0.00 0.00 89 1017.9
20230206131855 26 329 2.0 9.0 0.00 0.00 0.00 89 1017.7
20230206131355 27 296 2.0 9.0 0.00 0.00 0.00 89 1017.7
20230206130855 27 306 3.0 10.0 0.00 0.00 0.00 89 1017.5
20230206130416 28 303 4.0 10.0 0.00 0.00 0.00 88 1017.1
20230206125855 28 328 3.0 9.0 0.00 0.00 0.00 88 1017.0
20230206125355 29 289 3.0 11.0 0.00 0.00 0.00 88 1016.9
20230206124855 29 300 2.0 11.0 0.00 0.00 0.00 88 1016.7
20230206124355 30 286 3.0 11.0 0.00 0.00 0.00 88 1016.5
20230206123937 31 304 4.0 11.0 0.00 0.00 0.00 89 1016.4
20230206123354 31 298 6.0 13.0 0.00 0.00 0.00 89 1016.2
20230206122855 31 302 4.0 13.0 0.00 0.00 0.00 89 1016.0
20230206122355 31 333 2.0 12.0 0.00 0.00 0.00 89 1015.8
20230206121855 31 351 3.0 12.0 0.00 0.00 0.00 88 1015.9
20230206121355 31 298 6.0 10.0 0.00 0.00 0.00 87 1015.8
20230206120855 32 319 3.0 10.0 0.00 0.00 0.00 86 1015.7
20230206120355 33 301 4.0 10.0 0.00 0.00 0.00 85 1015.6
20230206115855 34 274 3.0 10.0 0.00 0.00 0.00 84 1015.5
20230206115356 34 303 4.0 8.0 0.00 0.00 0.00 83 1015.3
20230206114855 34 266 1.0 7.0 0.00 0.00 0.00 82 1015.1
20230206114355 34 235 1.0 4.0 0.00 0.00 0.00 81 1015.0
20230206113855 34 226 0.0 0.0 0.00 0.00 0.00 80 1014.9
20230206113355 34 225 0.0 0.0 0.00 0.00 0.00 80 1014.7
20230206112916 34 225 0.0 0.0 0.00 0.00 0.00 80 1014.6
20230206112355 34 225 0.0 0.0 0.00 0.00 0.00 80 1014.6
20230206111855 34 225 0.0 0.0 0.00 0.00 0.00 80 1014.4
20230206111355 34 225 0.0 0.0 0.00 0.00 0.00 79 1014.3
20230206110855 34 225 0.0 0.0 0.00 0.00 0.00 79 1014.2
20230206110356 34 225 0.0 0.0 0.00 0.00 0.00 78 1014.1
20230206105916 35 225 0.0 0.0 0.00 0.00 0.00 78 1014.1
20230206105355 35 225 0.0 0.0 0.00 0.00 0.00 78 1014.1
20230206104855 35 225 0.0 0.0 0.00 0.00 0.00 78 1014.0
20230206104355 35 225 0.0 0.0 0.00 0.00 0.00 77 1013.9
20230206103916 35 225 0.0 3.0 0.00 0.00 0.00 77 1014.0
20230206103416 35 224 1.0 3.0 0.00 0.00 0.00 78 1014.0
20230206102855 35 225 0.0 0.0 0.00 0.00 0.00 79 1013.9
20230206102355 36 225 0.0 0.0 0.00 0.00 0.00 79 1013.9
20230206101855 36 225 0.0 0.0 0.00 0.00 0.00 78 1013.8
20230206100355 36 225 0.0 4.0 0.00 0.00 0.00 80 1013.8
20230206095855 36 228 1.0 4.0 0.00 0.00 0.00 80 1013.8
20230206095355 36 226 1.0 5.0 0.00 0.00 0.00 79 1013.7
20230206094916 36 226 1.0 5.0 0.00 0.00 0.00 79 1013.5
20230206094355 36 224 1.0 5.0 0.00 0.00 0.00 78 1013.5
20230206093855 35 223 1.0 5.0 0.00 0.00 0.00 79 1013.6
20230206093355 35 223 1.0 5.0 0.00 0.00 0.00 78 1013.6
20230206092855 36 224 1.0 3.0 0.00 0.00 0.00 78 1013.6
20230206092355 36 225 0.0 3.0 0.00 0.00 0.00 78 1013.5
20230206091855 36 224 0.0 3.0 0.00 0.00 0.00 77 1013.5
20230206091416 36 223 0.0 5.0 0.00 0.00 0.00 77 1013.5
20230206090855 36 226 1.0 6.0 0.00 0.00 0.00 77 1013.4
20230206090355 36 228 3.0 6.0 0.00 0.00 0.00 77 1013.3
20230206085855 36 219 3.0 7.0 0.00 0.00 0.00 77 1013.3
20230206085355 36 219 4.0 9.0 0.00 0.00 0.00 77 1013.3
20230206084855 36 213 5.0 9.0 0.00 0.00 0.00 77 1013.3
20230206084355 37 216 1.0 5.0 0.00 0.00 0.00 77 1013.2
20230206083856 37 221 2.0 7.0 0.00 0.00 0.00 77 1013.1
20230206083355 37 222 3.0 7.0 0.00 0.00 0.00 77 1013.1
20230206082855 37 224 4.0 12.0 0.00 0.00 0.00 77 1013.2
20230206082355 37 234 6.0 12.0 0.00 0.00 0.00 76 1013.2
20230206081855 37 230 5.0 10.0 0.00 0.00 0.00 76 1013.1
20230206081355 37 252 3.0 12.0 0.00 0.00 0.00 75 1013.0
20230206080855 37 234 6.0 12.0 0.00 0.00 0.00 73 1012.9
20230206080356 36 233 3.0 9.0 0.00 0.00 0.00 73 1013.0
20230206075855 36 213 4.0 8.0 0.00 0.00 0.00 72 1013.0
20230206075355 36 239 2.0 8.0 0.00 0.00 0.00 72 1012.9
20230206074855 36 206 3.0 6.0 0.00 0.00 0.00 71 1012.9
20230206074356 36 203 1.0 4.0 0.00 0.00 0.00 68 1012.9
20230206073855 37 204 2.0 6.0 0.00 0.00 0.00 66 1012.9
20230206073355 37 204 3.0 7.0 0.00 0.00 0.00 67 1012.9
20230206072855 37 217 2.0 7.0 0.00 0.00 0.00 70 1012.9
20230206072356 37 191 3.0 7.0 0.00 0.00 0.00 70 1012.8
20230206071855 37 206 1.0 6.0 0.00 0.00 0.00 70 1012.8
20230206071355 37 208 2.0 8.0 0.00 0.00 0.00 70 1012.7
20230206070856 37 195 5.0 8.0 0.00 0.00 0.00 68 1012.8
20230206070355 37 191 3.0 7.0 0.00 0.00 0.00 68 1012.6
20230206065856 37 187 3.0 9.0 0.00 0.00 0.00 66 1012.6
20230206065355 37 215 4.0 10.0 0.00 0.00 0.00 66 1012.6
20230206064856 37 194 5.0 10.0 0.00 0.00 0.00 65 1012.5
20230206064355 37 197 3.0 10.0 0.00 0.00 0.00 65 1012.5
20230206063916 37 204 4.0 11.0 0.00 0.00 0.00 65 1012.5
20230206063356 37 226 5.0 11.0 0.00 0.00 0.00 64 1012.5
20230206062855 37 206 5.0 10.0 0.00 0.00 0.00 64 1012.4
20230206062356 37 207 5.0 10.0 0.00 0.00 0.00 64 1012.3
20230206061855 37 176 4.0 9.0 0.00 0.00 0.00 65 1012.2
20230206061355 37 192 4.0 9.0 0.00 0.00 0.00 65 1012.2
20230206060855 37 202 5.0 14.0 0.00 0.00 0.00 64 1012.1
20230206060416 37 196 5.0 14.0 0.00 0.00 0.00 63 1012.0
20230206055855 37 183 6.0 12.0 0.00 0.00 0.00 64 1011.9
20230206055355 37 188 3.0 10.0 0.00 0.00 0.00 63 1011.9
20230206054855 37 188 4.0 10.0 0.00 0.00 0.00 64 1012.0
20230206054356 37 179 3.0 9.0 0.00 0.00 0.00 63 1011.9
20230206053855 37 181 3.0 10.0 0.00 0.00 0.00 63 1011.9
20230206053356 36 186 4.0 10.0 0.00 0.00 0.00 63 1012.0
20230206052855 37 199 4.0 12.0 0.00 0.00 0.00 63 1012.0
20230206052356 36 184 6.0 12.0 0.00 0.00 0.00 63 1012.1
20230206051855 37 177 4.0 9.0 0.00 0.00 0.00 62 1012.1
20230206051417 37 178 2.0 10.0 0.00 0.00 0.00 62 1012.1
20230206050855 37 203 6.0 10.0 0.00 0.00 0.00 62 1012.1
20230206050356 37 185 4.0 14.0 0.00 0.00 0.00 62 1012.1
20230206045855 37 186 6.0 14.0 0.00 0.00 0.00 61 1012.1
20230206045356 37 179 5.0 12.0 0.00 0.00 0.00 61 1012.1
20230206044916 37 186 4.0 12.0 0.00 0.00 0.00 62 1012.1
20230206043356 37 196 3.0 13.0 0.00 0.00 0.00 62 1012.2
20230206042856 37 179 4.0 13.0 0.00 0.00 0.00 62 1012.2
20230206042356 37 179 3.0 11.0 0.00 0.00 0.00 62 1012.3
20230206041856 37 196 5.0 12.0 0.00 0.00 0.00 61 1012.3
20230206041417 37 176 4.0 13.0 0.00 0.00 0.00 61 1012.2
20230206040855 37 183 6.0 13.0 0.00 0.00 0.00 61 1012.2
20230206040416 37 181 6.0 13.0 0.00 0.00 0.00 61 1012.3
20230206035855 37 196 5.0 13.0 0.00 0.00 0.00 62 1012.3
20230206035356 37 198 7.0 14.0 0.00 0.00 0.00 61 1012.3
20230206034855 37 191 7.0 14.0 0.00 0.00 0.00 60 1012.2
20230206034355 37 169 5.0 13.0 0.00 0.00 0.00 62 1012.1
20230206033856 37 186 7.0 14.0 0.00 0.00 0.00 60 1012.2
20230206033355 37 180 5.0 14.0 0.00 0.00 0.00 60 1012.1
20230206032856 37 172 4.0 12.0 0.00 0.00 0.00 61 1012.2
20230206032355 37 179 7.0 13.0 0.00 0.00 0.00 60 1012.2
20230206031855 37 181 7.0 13.0 0.00 0.00 0.00 60 1012.2
20230206031355 37 180 4.0 14.0 0.00 0.00 0.00 60 1012.2
20230206030356 37 180 5.0 12.0 0.00 0.00 0.00 61 1012.2
20230206025855 37 177 6.0 14.0 0.00 0.00 0.00 61 1012.1
20230206025438 37 177 6.0 15.0 0.00 0.00 0.00 60 1012.1
20230206024855 37 181 7.0 15.0 0.00 0.00 0.00 60 1012.2
20230206024356 36 166 4.0 17.0 0.00 0.00 0.00 61 1012.1
20230206023855 36 183 5.0 17.0 0.00 0.00 0.00 61 1012.1
20230206023356 36 182 6.0 13.0 0.00 0.00 0.00 60 1012.0
20230206022916 36 177 7.0 14.0 0.00 0.00 0.00 60 1012.0
20230206022356 36 188 5.0 14.0 0.00 0.00 0.00 61 1012.0
20230206021855 36 184 6.0 15.0 0.00 0.00 0.00 61 1012.0
20230206021356 36 178 8.0 15.0 0.00 0.00 0.00 60 1012.1
20230206020855 36 169 5.0 14.0 0.00 0.00 0.00 60 1012.1
20230206020356 36 180 6.0 17.0 0.00 0.00 0.00 60 1012.1
20230206015855 36 168 8.0 17.0 0.00 0.00 0.00 59 1012.1
20230206015356 36 192 7.0 15.0 0.00 0.00 0.00 60 1012.1
20230206014916 36 177 8.0 15.0 0.00 0.00 0.00 60 1012.1
20230206014356 36 183 6.0 16.0 0.00 0.00 0.00 60 1012.1
20230206013855 36 198 3.0 16.0 0.00 0.00 0.00 60 1012.2
20230206013356 36 194 6.0 16.0 0.00 0.00 0.00 60 1012.1
20230206012916 36 188 5.0 12.0 0.00 0.00 0.00 60 1012.1
20230206012356 36 186 6.0 16.0 0.00 0.00 0.00 60 1012.3
20230206011855 36 183 7.0 16.0 0.00 0.00 0.00 60 1012.2
20230206011356 36 179 8.0 16.0 0.00 0.00 0.00 60 1012.1
20230206010855 36 183 5.0 15.0 0.00 0.00 0.00 60 1012.1
20230206010356 36 183 8.0 15.0 0.00 0.00 0.00 60 1012.1
20230206005855 36 178 8.0 18.0 0.00 0.00 0.00 60 1012.2
20230206005417 36 185 7.0 18.0 0.00 0.00 0.00 60 1012.2
20230206004855 36 186 5.0 20.0 0.00 0.00 0.00 61 1012.2
20230206003356 36 186 6.0 16.0 0.00 0.00 0.00 61 1012.2
20230206002855 36 173 7.0 15.0 0.00 0.00 0.00 61 1012.1
20230206002356 36 174 6.0 15.0 0.00 0.00 0.00 61 1012.2
20230206001855 36 184 8.0 15.0 0.00 0.00 0.00 61 1012.2
20230206001356 35 183 6.0 16.0 0.00 0.00 0.00 61 1012.3
20230206000855 35 177 7.0 16.0 0.00 0.00 0.00 62 1012.3
20230206000356 35 181 5.0 16.0 0.00 0.00 0.00 61 1012.2
20230205235855 35 170 5.0 15.0 0.00 0.00 0.00 61 1012.2
20230205235356 35 175 7.0 25.0 0.00 0.00 0.00 61 1012.2
20230205234855 35 180 5.0 25.0 0.00 0.00 0.00 61 1012.2
20230205234356 35 180 6.0 17.0 0.00 0.00 0.00 61 1012.2
20230205233937 35 178 7.0 20.0 0.00 0.00 0.00 61 1012.2
20230205233356 35 182 5.0 20.0 0.00 0.00 0.00 61 1012.2
20230205232855 35 193 4.0 11.0 0.00 0.00 0.00 62 1012.2
20230205232356 35 182 6.0 15.0 0.00 0.00 0.00 61 1012.2
20230205231855 35 184 6.0 16.0 0.00 0.00 0.00 61 1012.1
20230205231356 35 172 7.0 16.0 0.00 0.00 0.00 61 1012.1
20230205230855 35 173 8.0 22.0 0.00 0.00 0.00 61 1012.1
20230205230356 35 169 7.0 22.0 0.00 0.00 0.00 62 1012.1
20230205225855 35 182 9.0 20.0 0.00 0.00 0.00 61 1012.1
20230205225356 35 176 9.0 20.0 0.00 0.00 0.00 61 1012.1
20230205224855 35 188 8.0 18.0 0.00 0.00 0.00 61 1012.1
20230205224356 35 177 7.0 19.0 0.00 0.00 0.00 61 1012.0
20230205223855 34 180 10.0 24.0 0.00 0.00 0.00 61 1012.1
20230205223355 34 178 11.0 25.0 0.00 0.00 0.00 60 1012.1
20230205222855 34 182 12.0 25.0 0.00 0.00 0.00 61 1012.1
20230205222355 34 175 8.0 15.0 0.00 0.00 0.00 61 1011.9
20230205221856 34 176 8.0 21.0 0.00 0.00 0.00 61 1011.8
20230205221355 34 177 11.0 21.0 0.00 0.00 0.00 61 1011.8
20230205220856 34 180 7.0 16.0 0.00 0.00 0.00 61 1011.9
20230205220416 33 194 6.0 15.0 0.00 0.00 0.00 62 1011.9
20230205215856 33 179 7.0 15.0 0.00 0.00 0.00 61 1011.9
20230205215355 33 178 6.0 16.0 0.00 0.00 0.00 62 1011.8
20230205214856 33 173 6.0 16.0 0.00 0.00 0.00 61 1011.7
20230205214355 33 180 9.0 18.0 0.00 0.00 0.00 61 1011.8
20230205213856 33 178 6.0 20.0 0.00 0.00 0.00 61 1011.8
20230205213355 33 177 6.0 20.0 0.00 0.00 0.00 61 1011.7
20230205212856 33 180 6.0 14.0 0.00 0.00 0.00 61 1011.6
20230205212356 33 179 7.0 19.0 0.00 0.00 0.00 61 1011.6
20230205211856 33 177 9.0 19.0 0.00 0.00 0.00 60 1011.4
20230205211356 33 170 10.0 18.0 0.00 0.00 0.00 61 1011.5
20230205210856 33 176 6.0 18.0 0.00 0.00 0.00 61 1011.6
20230205210355 33 167 9.0 24.0 0.00 0.00 0.00 61 1011.6
20230205205856 33 172 9.0 24.0 0.00 0.00 0.00 60 1011.9
20230205205356 33 174 9.0 25.0 0.00 0.00 0.00 60 1011.8
20230205204855 33 179 11.0 25.0 0.00 0.00 0.00 60 1011.8
20230205204356 33 172 10.0 19.0 0.00 0.00 0.00 59 1011.8
20230205203855 33 183 10.0 19.0 0.00 0.00 0.00 60 1011.9
20230205203355 33 179 7.0 22.0 0.00 0.00 0.00 60 1012.0
20230205202855 33 172 7.0 22.0 0.00 0.00 0.00 59 1011.9
20230205202356 33 174 7.0 27.0 0.00 0.00 0.00 59 1011.9
20230205201855 33 177 7.0 27.0 0.00 0.00 0.00 59 1011.9
20230205201356 33 179 10.0 23.0 0.00 0.00 0.00 59 1011.9
20230205200856 33 169 13.0 23.0 0.00 0.00 0.00 58 1011.9
20230205200356 33 180 6.0 18.0 0.00 0.00 0.00 59 1011.9
20230205195856 33 178 8.0 18.0 0.00 0.00 0.00 58 1012.0
20230205195356 33 169 9.0 18.0 0.00 0.00 0.00 58 1012.0
20230205194856 33 176 8.0 19.0 0.00 0.00 0.00 59 1012.1
20230205194356 32 183 9.0 19.0 0.00 0.00 0.00 59 1012.2
20230205193856 32 187 10.0 18.0 0.00 0.00 0.00 59 1012.2
20230205193355 32 177 10.0 21.0 0.00 0.00 0.00 58 1012.3
20230205192856 32 169 10.0 21.0 0.00 0.00 0.00 58 1012.1
20230205192416 32 178 8.0 20.0 0.00 0.00 0.00 59 1012.2
20230205191856 32 172 9.0 20.0 0.00 0.00 0.00 59 1012.3
20230205191416 32 177 9.0 19.0 0.00 0.00 0.00 59 1012.3
20230205190856 32 179 7.0 19.0 0.00 0.00 0.00 59 1012.4
20230205190355 32 176 8.0 21.0 0.00 0.00 0.00 59 1012.4
20230205185856 32 177 13.0 27.0 0.00 0.00 0.00 58 1012.5
20230205185356 31 177 10.0 27.0 0.00 0.00 0.00 59 1012.5